TimeEST,TemperatureF,Dew PointF,Humidity,Sea Level PressureIn,VisibilityMPH,Wind Direction,Wind SpeedMPH,Gust SpeedMPH,PrecipitationIn,Events,Conditions,WindDirDegrees,DateUTC
12:29 AM,33.1,32.0,96,29.86,3.0,East,5.8,-,0.01,Snow,Light Snow,90,2013-02-15 05:29:00
12:47 AM,33.8,32.0,93,29.86,2.5,ESE,9.2,-,0.02,Snow,Light Snow,110,2013-02-15 05:47:00
12:53 AM,33.1,32.0,96,29.87,2.5,East,9.2,-,0.03,Snow,Light Snow,100,2013-02-15 05:53:00
1:01 AM,34.0,32.0,92,29.85,5.0,ESE,6.9,-,0.00,Rain,Light Rain,110,2013-02-15 06:01:00
1:08 AM,34.0,32.0,92,29.85,6.0,ESE,8.1,-,0.00,,Overcast,110,2013-02-15 06:08:00
1:53 AM,34.0,32.0,92,29.86,6.0,East,5.8,-,0.00,,Overcast,100,2013-02-15 06:53:00
2:53 AM,35.1,30.9,85,29.85,7.0,East,5.8,-,0.00,Rain,Light Rain,80,2013-02-15 07:53:00
3:53 AM,35.1,30.9,85,29.84,8.0,ENE,5.8,-,0.00,,Overcast,70,2013-02-15 08:53:00
4:53 AM,34.0,30.0,85,29.84,8.0,Calm,Calm,-,N/A,,Scattered Clouds,0,2013-02-15 09:53:00
5:53 AM,37.0,30.0,76,29.86,10.0,WSW,6.9,-,0.00,,Overcast,250,2013-02-15 10:53:00
6:53 AM,35.1,30.9,85,29.86,9.0,ESE,3.5,-,N/A,,Overcast,120,2013-02-15 11:53:00
7:53 AM,36.0,30.0,79,29.89,8.0,Calm,Calm,-,N/A,,Overcast,0,2013-02-15 12:53:00
8:53 AM,37.9,28.9,70,29.92,10.0,West,9.2,19.6,N/A,,Overcast,270,2013-02-15 13:53:00
9:53 AM,36.0,28.9,76,29.93,10.0,West,10.4,-,N/A,,Overcast,280,2013-02-15 14:53:00
10:53 AM,39.0,24.1,55,29.94,10.0,West,13.8,-,N/A,,Overcast,260,2013-02-15 15:53:00
11:53 AM,39.0,23.0,53,29.95,10.0,WSW,11.5,-,N/A,,Overcast,250,2013-02-15 16:53:00
12:53 PM,37.9,23.0,55,29.94,10.0,West,12.7,-,N/A,,Overcast,270,2013-02-15 17:53:00
1:53 PM,37.9,24.1,57,29.95,10.0,West,13.8,-,N/A,,Overcast,270,2013-02-15 18:53:00
2:53 PM,37.9,24.1,57,29.95,10.0,West,11.5,-,N/A,,Overcast,270,2013-02-15 19:53:00
3:53 PM,37.9,23.0,55,29.97,10.0,West,15.0,-,N/A,,Overcast,270,2013-02-15 20:53:00
4:53 PM,35.1,26.1,70,29.98,10.0,NW,15.0,-,0.00,,Overcast,310,2013-02-15 21:53:00
5:53 PM,33.1,26.1,75,29.98,10.0,NNW,4.6,-,N/A,,Mostly Cloudy,330,2013-02-15 22:53:00
6:53 PM,32.0,26.1,79,30.00,10.0,NW,11.5,-,N/A,,Overcast,310,2013-02-15 23:53:00
7:53 PM,32.0,26.1,79,30.01,10.0,WNW,8.1,-,N/A,,Overcast,290,2013-02-16 00:53:00
8:53 PM,30.9,25.0,79,30.01,10.0,WNW,9.2,-,N/A,,Overcast,300,2013-02-16 01:53:00
9:53 PM,30.9,24.1,76,30.03,9.0,West,4.6,-,0.00,,Overcast,270,2013-02-16 02:53:00
10:53 PM,30.9,23.0,72,30.03,10.0,WNW,8.1,-,0.00,,Overcast,290,2013-02-16 03:53:00
11:53 PM,30.0,21.9,72,30.03,10.0,West,8.1,-,N/A,,Mostly Cloudy,270,2013-02-16 04:53:00